TimeCST,TemperatureF,Dew PointF,Humidity,Sea Level PressureIn,VisibilityMPH,Wind Direction,Wind SpeedMPH,Gust SpeedMPH,PrecipitationIn,Events,Conditions,WindDirDegrees,DateUTC
12:15 AM,-0.6,-6.7,75,30.39,10.0,Calm,Calm,-,N/A,,Overcast,0,2014-01-02 06:15:00
12:35 AM,-0.8,-6.7,76,30.38,10.0,Calm,Calm,-,N/A,,Overcast,0,2014-01-02 06:35:00
12:55 AM,-0.9,-6.7,77,30.38,10.0,NNW,3.5,-,N/A,,Overcast,330,2014-01-02 06:55:00
1:15 AM,-1.3,-6.9,77,30.38,7.0,NW,4.6,-,N/A,Snow,Light Snow,320,2014-01-02 07:15:00
1:35 AM,-1.5,-7.2,77,30.38,10.0,NNW,3.5,-,N/A,,Overcast,340,2014-01-02 07:35:00
1:55 AM,-1.8,-7.4,77,30.38,7.0,Calm,Calm,-,N/A,,Overcast,0,2014-01-02 07:55:00
2:15 AM,-2.2,-7.8,77,30.38,7.0,North,4.6,-,N/A,Snow,Light Snow,350,2014-01-02 08:15:00
2:35 AM,-2.6,-8.1,77,30.38,7.0,NNW,3.5,-,N/A,Snow,Light Snow,330,2014-01-02 08:35:00
2:55 AM,-3.5,-8.9,78,30.38,10.0,NNW,3.5,-,N/A,,Overcast,340,2014-01-02 08:55:00
3:15 AM,-4.5,-10.3,76,30.38,10.0,NNW,3.5,-,N/A,,Mostly Cloudy,330,2014-01-02 09:15:00
3:35 AM,-6.0,-11.6,77,30.38,10.0,North,3.5,-,N/A,,Scattered Clouds,350,2014-01-02 09:35:00
3:55 AM,-7.1,-12.8,76,30.38,10.0,Calm,Calm,-,N/A,,Clear,0,2014-01-02 09:55:00
4:15 AM,-8.0,-13.4,77,30.38,10.0,NNW,4.6,-,N/A,,Clear,340,2014-01-02 10:15:00
4:35 AM,-8.5,-13.9,77,30.38,10.0,Calm,Calm,-,N/A,,Clear,0,2014-01-02 10:35:00
4:55 AM,-9.9,-15.2,78,30.38,10.0,Calm,Calm,-,N/A,,Clear,0,2014-01-02 10:55:00
5:15 AM,-9.8,-14.8,78,30.38,10.0,Calm,Calm,-,N/A,,Clear,0,2014-01-02 11:15:00
5:35 AM,-11.2,-15.9,80,30.38,10.0,Calm,Calm,-,N/A,,Clear,0,2014-01-02 11:35:00
5:55 AM,-11.6,-16.4,79,30.39,10.0,Calm,Calm,-,N/A,,Clear,0,2014-01-02 11:55:00
6:15 AM,-12.5,-17.5,78,30.40,10.0,Calm,Calm,-,N/A,,Clear,0,2014-01-02 12:15:00
6:35 AM,-14.4,-18.9,80,30.40,10.0,Calm,Calm,-,N/A,,Clear,0,2014-01-02 12:35:00
6:55 AM,-12.8,-17.5,80,30.40,10.0,Calm,Calm,-,N/A,,Clear,0,2014-01-02 12:55:00
7:15 AM,-16.8,-22.0,77,30.40,10.0,Calm,Calm,-,N/A,,Clear,0,2014-01-02 13:15:00
7:35 AM,-15.3,-19.7,81,30.40,10.0,Calm,Calm,-,N/A,,Clear,0,2014-01-02 13:35:00
7:55 AM,-16.6,-22.9,73,30.41,10.0,Calm,Calm,-,N/A,,Clear,0,2014-01-02 13:55:00
8:15 AM,-19.5,-24.9,76,30.41,10.0,WNW,3.5,-,N/A,,Clear,290,2014-01-02 14:15:00
8:35 AM,-15.0,-20.0,78,30.42,10.0,Calm,Calm,-,N/A,,Clear,0,2014-01-02 14:35:00
8:55 AM,-16.1,-22.0,74,30.43,10.0,Calm,Calm,-,N/A,,Clear,0,2014-01-02 14:55:00
9:15 AM,-14.6,-19.8,77,30.43,10.0,Calm,Calm,-,N/A,,Clear,0,2014-01-02 15:15:00
9:35 AM,-11.7,-17.0,78,30.43,10.0,Calm,Calm,-,N/A,,Clear,0,2014-01-02 15:35:00
9:55 AM,-9.6,-15.9,74,30.44,10.0,North,4.6,-,N/A,,Clear,360,2014-01-02 15:55:00
10:15 AM,-9.4,-16.4,71,30.43,10.0,NNE,5.8,-,N/A,,Clear,20,2014-01-02 16:15:00
10:35 AM,-8.1,-15.7,70,30.44,10.0,NNE,5.8,-,N/A,,Clear,20,2014-01-02 16:35:00
10:55 AM,-6.7,-14.8,68,30.44,10.0,North,3.5,-,N/A,,Clear,10,2014-01-02 16:55:00
11:15 AM,-6.0,-14.4,67,30.43,10.0,Calm,Calm,-,N/A,,Clear,0,2014-01-02 17:15:00
11:35 AM,-4.7,-13.7,65,30.42,10.0,Calm,Calm,-,N/A,,Clear,0,2014-01-02 17:35:00
11:55 AM,-3.8,-12.1,68,30.42,10.0,Calm,Calm,-,N/A,,Clear,0,2014-01-02 17:55:00
12:15 PM,-2.4,-11.7,64,30.42,10.0,WSW,3.5,-,N/A,,Clear,250,2014-01-02 18:15:00
12:35 PM,-1.3,-10.5,65,30.42,10.0,Calm,Calm,-,N/A,,Clear,0,2014-01-02 18:35:00
12:55 PM,1.0,-8.1,65,30.41,10.0,NNW,4.6,-,N/A,,Clear,340,2014-01-02 18:55:00
1:15 PM,2.3,-6.7,66,30.41,10.0,West,4.6,-,N/A,,Clear,280,2014-01-02 19:15:00
1:35 PM,2.3,-7.1,65,30.40,10.0,Calm,Calm,-,N/A,,Clear,0,2014-01-02 19:35:00
1:55 PM,3.2,-6.3,65,30.40,10.0,NW,4.6,-,N/A,,Clear,320,2014-01-02 19:55:00
2:15 PM,3.7,-6.3,63,30.40,10.0,NNW,5.8,-,N/A,,Clear,340,2014-01-02 20:15:00
2:35 PM,3.7,-6.7,62,30.41,10.0,North,4.6,-,N/A,,Clear,350,2014-01-02 20:35:00
2:55 PM,2.8,-7.1,63,30.41,10.0,NNW,5.8,-,N/A,,Clear,340,2014-01-02 20:55:00
3:15 PM,3.0,-7.6,61,30.41,10.0,North,4.6,-,N/A,,Clear,350,2014-01-02 21:15:00
3:35 PM,3.0,-8.0,60,30.41,10.0,NNW,4.6,-,N/A,,Clear,340,2014-01-02 21:35:00
3:55 PM,2.3,-8.9,60,30.41,10.0,Calm,Calm,-,N/A,,Clear,0,2014-01-02 21:55:00
4:15 PM,1.8,-9.6,59,30.41,10.0,NW,3.5,-,N/A,,Clear,320,2014-01-02 22:15:00
4:35 PM,0.9,-10.3,59,30.41,10.0,Calm,Calm,-,N/A,,Clear,0,2014-01-02 22:35:00
4:55 PM,-0.6,-10.5,63,30.42,10.0,WNW,3.5,-,N/A,,Clear,300,2014-01-02 22:55:00
5:15 PM,-1.8,-11.0,65,30.42,10.0,Calm,Calm,-,N/A,,Clear,0,2014-01-02 23:15:00
5:35 PM,-5.8,-13.2,70,30.42,10.0,Calm,Calm,-,N/A,,Clear,0,2014-01-02 23:35:00
5:55 PM,-8.1,-13.9,76,30.41,10.0,Calm,Calm,-,N/A,,Clear,0,2014-01-02 23:55:00
6:15 PM,-12.3,-17.0,80,30.41,10.0,West,3.5,-,N/A,,Clear,280,2014-01-03 00:15:00
6:35 PM,-12.3,-17.7,77,30.41,10.0,Calm,Calm,-,N/A,,Clear,0,2014-01-03 00:35:00
6:55 PM,-13.9,-18.6,80,30.41,10.0,Calm,Calm,-,N/A,,Clear,0,2014-01-03 00:55:00
7:15 PM,-14.4,-19.7,77,30.42,10.0,Calm,Calm,-,N/A,,Clear,0,2014-01-03 01:15:00
7:35 PM,-17.9,-23.1,77,30.42,10.0,Calm,Calm,-,N/A,,Clear,0,2014-01-03 01:35:00
7:55 PM,-17.7,-22.5,78,30.42,10.0,Calm,Calm,-,N/A,,Clear,0,2014-01-03 01:55:00
8:15 PM,-15.5,-20.2,79,30.41,10.0,Calm,Calm,-,N/A,,Clear,0,2014-01-03 02:15:00
8:35 PM,-17.3,-22.0,79,30.40,10.0,Calm,Calm,-,N/A,,Clear,0,2014-01-03 02:35:00
8:55 PM,-15.5,-20.4,79,30.38,10.0,Calm,Calm,-,N/A,,Clear,0,2014-01-03 02:55:00
9:15 PM,-20.0,-26.3,73,30.39,10.0,Calm,Calm,-,N/A,,Clear,0,2014-01-03 03:15:00
9:35 PM,-22.0,-28.1,73,30.40,10.0,Calm,Calm,-,N/A,,Clear,0,2014-01-03 03:35:00
9:55 PM,-21.6,-27.2,75,30.40,10.0,Calm,Calm,-,N/A,,Clear,0,2014-01-03 03:55:00
10:15 PM,-20.9,-26.7,75,30.38,10.0,Calm,Calm,-,N/A,,Clear,0,2014-01-03 04:15:00
10:35 PM,-21.3,-27.6,73,30.37,10.0,NE,3.5,-,N/A,,Clear,50,2014-01-03 04:35:00
10:55 PM,-22.5,-28.7,73,30.36,10.0,Calm,Calm,-,N/A,,Clear,0,2014-01-03 04:55:00
11:15 PM,-22.9,-28.7,74,30.35,10.0,Calm,Calm,-,N/A,,Clear,0,2014-01-03 05:15:00
11:35 PM,-23.8,-29.9,73,30.35,10.0,Calm,Calm,-,N/A,,Clear,0,2014-01-03 05:35:00
11:55 PM,-23.3,-29.2,74,30.35,10.0,Calm,Calm,-,N/A,,Clear,0,2014-01-03 05:55:00